This demonstration page uses our WeatherBlox Daily Observations layout. Learn more.

Left ArrowRight Arrow

39.08367, -84.50855

Hourly Observations for May 19, 2019

Temp ( °F °C ) Dew Point ( °F °C ) Humidity (%) Winds ( mph kmh ) Pressure ( in mb ) Visibility ( mi km ) Precip ( " mm )
12:53 am 00:53 Clear 70 21.1 63 17.2 79 79 S 7 11 29.88 1012 10 16 N/A
1:53 am 01:53 Mostly Clear 70 21.1 63 17.2 79 79 SSE 6 9 29.86 1011 10 16 N/A
2:53 am 02:53 Clear 69 20.6 62 16.7 78 78 SSW 6 9 29.85 1011 10 16 N/A
3:53 am 03:53 Clear 66 18.9 62 16.7 87 87 SSW 5 7 29.85 1011 10 16 N/A
4:53 am 04:53 Clear 67 19.4 62 16.7 84 84 N N/A 29.86 1011 10 16 N/A
5:53 am 05:53 Clear 68 20 63 17.2 84 84 SSW 7 11 29.86 1011 10 16 N/A
6:53 am 06:53 Sunny 69 20.6 63 17.2 81 81 SSW 7 11 29.85 1011 10 16 N/A
7:53 am 07:53 Sunny 72 22.2 64 17.8 76 76 S 9 15 29.83 1010 10 16 N/A
8:53 am 08:53 Sunny 73 22.8 63 17.2 71 71 S 14 22 29.85 1011 10 16 N/A
9:53 am 09:53 Mostly Sunny 77 25 65 18.3 66 66 S 14 22 29.85 1011 10 16 N/A
10:53 am 10:53 Mostly Sunny 80 26.7 63 17.2 56 56 SSW 17 28 29.85 1011 10 16 N/A
11:53 am 11:53 Mostly Cloudy with Light Rain 77 25 60 15.6 56 56 SSW 18 30 29.86 1011 10 16 N/A
12:53 pm 12:53 Cloudy 76 24.4 59 15 56 56 S 14 22 29.84 1011 10 16 N/A
1:53 pm 13:53 Mostly Cloudy 77 25 59 15 54 54 SSW 15 24 29.83 1010 10 16 N/A
2:53 pm 14:53 Mostly Cloudy with Light Rain 77 25 60 15.6 56 56 S 13 20 29.81 1010 10 16 N/A
3:53 pm 15:53 Cloudy with Light Rain 77 25 58 14.4 52 52 SSW 21 33 29.82 1010 10 16 N/A
4:53 pm 16:53 Cloudy with Light Rain 68 20 64 17.8 87 87 SW 16 26 29.83 1010 5 8 0.12 3.05
5:53 pm 17:53 Cloudy 69 20.6 65 18.3 87 87 SW 8 13 29.83 1010 10 16 N/A
6:53 pm 18:53 Mostly Cloudy 70 21.1 65 18.3 84 84 S 6 9 29.82 1010 10 16 N/A
7:53 pm 19:53 Mostly Sunny 70 21.1 64 17.8 82 82 S 9 15 29.80 1009 10 16 N/A
8:53 pm 20:53 Clear 70 21.1 63 17.2 79 79 SSW 10 17 29.81 1009 10 16 N/A
9:53 pm 21:53 Clear 69 20.6 61 16.1 76 76 S 13 20 29.81 1010 10 16 N/A
10:41 pm 22:41 Mostly Cloudy with Rain 68 20 62 16.7 81 81 W 17 28 29.87 1011 7 11 0.05 1.27
10:53 pm 22:53 Cloudy with Rain 66 18.9 62 16.7 87 87 W 15 24 29.88 1012 4 6 0.10 2.54
11:18 pm 23:18 Cloudy with Rain 64 17.8 62 16.7 93 93 SSW 7 11 29.87 1012 2 3 0.10 2.54
11:28 pm 23:28 Cloudy with Heavy Rain 64 17.8 62 16.7 93 93 SSW 7 11 29.87 1012 3 5 0.15 3.81
11:33 pm 23:33 Cloudy with Heavy Rain 64 17.8 62 16.7 93 93 SSW 6 9 29.87 1012 2 3 0.20 5.08
11:51 pm 23:51 Cloudy with Heavy Rain 64 18 63 17 94 94 SSW 10 17 29.87 1012 3 5 0.34 8.64
11:53 pm 23:53 Cloudy with Heavy Rain 64 17.8 62 16.7 93 93 S 9 15 29.87 1012 3 5 0.35 8.89

Powered by AerisWeather